EHI
0 0 0 0 0 0 0 0 0 0 0 0 0 0 0 0 0 0 0 0 0 0 0 0 0 0 0 0 0 0 0 0 0 0 0 0 0 0 0 0 0 0 0
0 0 0 0 0 0 0 0 0 0 0 0 0 0 0 0 0 0 0 0 0 0 0 0 0 0 0 0 0 0 0 0 0 0 0 0 0 0 0 0 0 0 0
0 0 0 0 0 0 0 0 0 0 0 0 0 0 0 0 0 0 0 0 0 0 0 0 0 0 0 0 0 0 0 0 0 0 0 0 0 0 0 0 0 0 0
0 0 0 0 0 0 0 0 0 0 0 0 0 0 0 0 0 0 0 0 0 0 0 0 0 0 0 0 0 0 0 0 0 0 0 0 0 0 0 0 0 0 0
0 0 0 0 0 1 1 1 0 0 0 0 0 0 0 0 0 0 0 0 0 0 0 0 0 0 0 0 0 0 0 0 0 0 0 0 0 0 0 0 0 0 0
0 0 0 0 0 1 2 2 1 0 0 0 0 0 0 0 0 0 0 0 0 0 0 0 0 0 0 0 0 0 0 0 0 0 0 0 0 0 0 0 0 0 0
0 0 0 0 0 1 3 3 2 0 0 0 0 0 0 0 0 0 0 0 0 0 0 0 0 0 0 0 0 0 0 0 0 0 0 0 0 0 0 0 0 0 0
0 0 0 0 1 1 2 2 1 0 0 0 0 0 0 0 0 0 0 0 0 0 0 0 0 0 0 0 0 0 0 0 0 0 0 0 0 0 0 0 0 0 0
0 0 0 1 2 3 3 2 1 1 1 1 0 0 0 0 0 0 0 0 0 0 0 0 0 0 0 0 0 0 0 0 0 0 0 0 0 0 0 0 0 0 0
0 0 0 1 2 3 3 3 2 2 2 1 0 0 0 0 0 0 0 0 0 0 0 0 0 0 0 0 0 0 0 0 0 0 0 0 0 0 0 0 0 0 0
0 0 0 1 2 3 3 3 3 3 3 1 0 0 0 0 0 0 0 0 0 0 0 0 0 0 0 0 0 0 0 0 0 0 0 0 0 0 0 0 0 0 0
0 0 0 1 2 3 3 3 3 3 2 1 0 0 0 0 0 0 0 0 0 0 0 0 0 0 0 0 0 0 0 0 0 0 0 0 0 0 0 0 0 0 0
0 0 0 0 1 3 3 3 3 2 1 0 0 0 0 0 0 0 0 0 0 0 0 0 0 0 0 0 0 0 0 0 0 0 0 0 0 0 0 0 0 0 0
0 0 0 0 1 2 2 2 1 1 2 1 0 0 0 0 0 0 0 0 0 0 0 0 0 0 0 0 0 0 0 0 0 0 0 0 0 0 0 0 0 0 0
0 0 0 0 0 1 1 1 0 1 2 1 0 0 0 0 0 0 0 0 0 0 0 0 0 0 0 0 0 0 0 0 0 0 0 0 0 0 0 0 0 0 0
0 0 0 0 0 0 0 0 0 0 1 1 0 0 0 0 0 0 0 0 0 0 0 0 0 0 0 0 0 0 0 0 0 0 0 0 0 0 0 0 0 0 0
0 0 0 0 0 0 0 0 0 0 0 0 0 0 0 0 0 0 0 0 0 0 0 0 0 0 0 0 0 0 0 0 0 0 0 0 0 0 0 0 0 0 0
0 0 0 0 0 0 0 0 0 0 0 0 0 0 0 0 0 0 0 0 0 0 0 0 0 0 0 0 0 0 0 0 0 0 0 0 0 0 0 0 0 0 0
0 0 0 0 0 0 0 0 0 0 0 0 0 0 0 0 0 0 0 0 0 0 0 0 0 0 0 0 0 0 0 0 0 0 0 0 0 0 0 0 0 0 0
0 0 0 0 0 0 0 0 0 0 0 0 0 0 0 0 0 0 0 0 0 0 0 0 0 0 0 0 0 0 0 0 0 0 0 0 0 0 0 0 0 0 0
0 0 0 0 0 0 0 0 0 0 0 0 0 0 0 0 0 0 0 0 0 0 0 0 0 0 0 0 0 0 0 0 0 0 0 0 0 0 0 0 0 0 0
0 0 0 0 0 0 0 0 0 0 0 0 0 0 0 0 0 0 0 0 0 0 0 0 0 0 0 0 0 0 0 0 0 0 0 0 0 0 0 0 0 0 0
0 0 0 0 0 0 0 0 0 0 0 0 0 0 0 0 0 0 0 0 0 0 0 0 0 0 0 0 0 0 0 0 0 0 0 0 0 0 0 0 0 0 0
0 0 0 0 0 0 0 0 0 0 0 0 0 0 0 0 0 0 0 0 0 0 0 0 0 0 0 0 0 0 0 0 0 0 0 0 0 0 0 0 0 0 0
0 0 0 0 0 0 0 0 0 0 0 0 0 0 0 0 0 0 0 0 0 0 0 0 0 0 0 0 0 0 0 0 0 0 0 0 0 0 0 0 0 0 0
0 0 0 0 0 0 0 0 0 0 0 0 0 0 0 0 0 0 0 0 0 0 0 0 0 0 0 0 0 0 0 0 0 0 0 0 0 0 0 0 0 0 0
Wind_Speed
9 8 7 6 6 5 4 4 4 4 4 4 4 3 3 3 3 3 3 3 2 3 2 2 2 2 1 1 1 2 2 2 1 1 2 2 3 3 3 3 2 2 4
8 8 8 7 6 6 5 5 5 5 4 4 4 4 3 3 3 3 3 3 3 2 2 2 2 2 2 2 2 2 2 2 1 2 1 2 3 4 3 3 3 3 3
8 8 8 8 7 6 5 5 5 5 5 5 4 4 4 4 3 3 3 3 3 2 2 2 2 2 2 2 1 2 2 2 1 1 1 2 2 2 3 3 3 3 3
9 8 8 8 7 6 5 5 5 5 5 5 5 4 4 4 4 4 4 3 3 3 2 2 2 2 2 2 2 2 2 1 1 1 1 1 1 2 2 3 2 2 3
9 9 8 7 7 6 6 5 5 5 5 5 5 4 4 3 2 3 4 3 3 3 3 3 4 5 7 5 3 3 2 1 1 1 1 1 2 2 3 3 3 3 2
9 9 7 7 7 6 6 6 6 5 5 5 5 4 4 3 4 2 1 3 3 3 2 3 4 4 5 4 5 6 6 3 2 1 1 2 3 3 2 3 3 4 3
9 9 8 8 8 7 7 6 6 6 5 5 5 4 4 5 6 4 1 2 2 2 1 2 2 2 1 3 5 5 4 3 4 4 3 3 4 3 3 4 3 4 4
9 9 8 8 8 7 7 7 6 6 5 5 5 5 4 5 6 5 3 3 3 3 2 1 2 2 2 1 1 2 3 3 3 2 3 3 4 4 3 4 4 4 3
9 8 9 8 8 8 8 7 6 6 5 5 5 5 5 5 6 5 4 3 3 3 2 2 1 2 4 2 0 1 1 2 4 3 5 4 5 5 5 3 3 3 4
8 8 8 8 8 8 8 7 6 6 5 5 4 4 4 4 6 5 5 3 3 3 3 3 3 2 3 2 1 0 1 1 1 1 1 1 1 1 2 3 3 4 4
7 7 7 7 7 7 7 6 6 6 6 5 5 4 3 3 6 5 4 3 3 2 2 2 3 4 2 1 2 2 3 3 2 2 2 2 2 2 2 2 3 4 4
7 7 7 7 7 6 7 7 7 7 6 6 5 4 3 3 3 4 4 2 1 2 1 2 4 5 3 1 0 2 2 3 2 2 1 2 2 2 2 3 4 4 4
8 8 7 7 7 7 7 7 7 6 5 5 4 4 4 3 4 5 5 3 1 1 1 4 4 4 3 2 1 1 1 2 2 2 2 2 2 3 3 3 4 4 5
8 8 7 8 7 7 5 6 6 6 5 5 5 4 4 4 4 4 5 5 5 4 2 5 5 4 2 1 2 2 2 1 2 2 3 2 2 2 2 3 4 4 4
8 8 7 7 7 6 5 3 4 4 3 4 5 5 5 4 3 3 3 3 3 3 3 2 2 2 2 1 1 1 1 1 2 2 2 3 3 3 3 3 4 4 5
8 7 6 6 6 5 6 5 4 3 5 4 2 2 3 4 6 6 4 4 4 4 3 2 2 2 1 1 1 1 1 2 2 2 3 3 3 3 3 3 4 5 5
7 7 6 6 6 6 6 6 5 5 5 5 5 4 4 5 7 7 6 5 5 5 3 2 2 2 2 1 2 2 2 2 2 2 3 3 4 4 4 4 4 5 6
7 6 6 6 6 6 6 6 5 6 5 4 4 6 6 6 6 6 7 6 4 4 2 2 2 2 2 2 2 2 2 2 2 2 3 3 4 4 5 5 5 6 6
7 6 6 5 5 5 6 5 5 5 5 5 5 6 6 6 6 5 6 3 3 3 3 2 2 2 2 2 2 2 2 2 3 2 3 3 4 4 5 5 6 6 7
6 7 6 6 6 6 6 6 5 5 5 5 5 5 6 5 4 4 4 3 3 3 2 2 2 2 2 2 2 2 3 3 3 3 3 3 4 4 5 6 6 6 6
6 7 7 6 5 5 5 5 5 5 5 4 4 4 5 5 4 4 4 3 3 3 2 2 2 2 2 2 2 3 4 3 3 3 3 3 4 4 4 5 5 6 6
5 6 6 5 5 5 5 5 5 5 5 5 4 5 6 4 3 3 3 3 3 2 2 2 2 2 2 2 2 3 3 3 3 3 3 4 4 4 5 5 5 6 6
5 6 6 5 5 6 5 5 5 5 5 5 4 4 5 4 3 3 3 3 2 2 2 2 2 2 2 2 2 3 3 3 3 4 4 4 4 5 5 5 7 7 7
6 6 6 5 5 5 5 5 5 5 5 5 4 4 4 3 3 3 2 2 2 2 2 1 2 2 2 2 2 2 2 2 3 3 5 5 5 5 5 6 6 7 7
5 5 5 5 5 5 5 5 5 4 4 4 4 3 3 3 3 3 3 3 3 2 2 1 1 1 2 2 2 1 1 2 3 4 4 5 6 6 6 7 6 7 7
5 5 5 5 5 5 5 5 4 4 4 4 4 3 3 3 3 3 3 2 2 2 2 1 1 1 1 1 1 1 1 2 3 5 5 5 5 5 6 6 8 7 8
Wind_Direction
177 174 172 171 173 172 175 170 167 159 158 158 149 144 137 136 134 130 125 124 126 120 114 90 78 46 42 36 16 0 357 347 345 39 43 37 37 30 41 20 28 23 70
175 175 175 172 174 176 173 172 170 163 163 163 152 144 135 135 139 135 128 128 122 114 108 91 81 81 48 23 11 12 14 355 340 8 35 33 22 24 17 8 18 23 29
172 174 175 176 176 175 173 167 169 166 163 165 156 149 146 143 140 135 129 126 119 109 93 83 68 74 77 60 26 24 19 24 7 340 31 33 10 19 2 358 12 5 357
173 176 177 175 173 172 164 163 167 165 165 163 154 151 147 148 146 141 134 127 117 103 87 77 62 59 47 48 43 29 19 27 23 12 32 40 19 357 329 341 350 356 350
175 179 178 174 170 166 159 162 162 160 163 157 149 145 137 140 133 140 139 133 126 112 101 89 69 56 38 26 21 19 18 17 27 9 10 21 15 359 346 335 333 330 349
179 179 172 171 169 168 165 164 161 161 159 153 150 143 138 127 103 92 164 143 136 127 118 110 113 116 103 84 57 39 19 8 0 10 357 358 355 354 342 321 326 323 329
178 173 171 172 170 172 167 164 164 163 159 157 154 149 145 126 129 137 167 165 136 118 118 118 101 92 161 126 126 136 87 42 355 341 357 358 349 349 329 319 328 323 325
176 173 173 174 170 168 167 168 170 164 158 162 158 155 142 133 140 148 169 181 138 128 130 125 130 119 65 18 93 83 65 61 26 350 357 6 3 350 331 319 312 302 301
175 177 174 175 171 169 169 171 170 164 160 166 163 160 157 148 150 161 188 156 150 140 124 93 84 101 74 341 300 94 88 89 90 56 19 20 21 5 336 312 318 309 312
178 180 176 174 173 173 172 168 163 164 163 161 157 165 165 154 143 167 206 180 169 153 139 124 78 61 85 327 291 16 12 35 16 145 200 207 263 79 309 310 319 309 311
174 174 171 171 174 170 165 162 162 161 160 162 159 161 162 150 144 163 207 210 180 171 162 144 109 113 103 23 325 3 22 338 322 322 333 346 338 346 345 325 326 313 309
164 167 170 170 167 162 158 161 164 161 161 165 166 160 159 149 140 153 170 217 261 184 170 141 115 125 123 102 10 54 28 298 292 300 314 332 335 339 336 328 318 307 299
163 165 167 167 164 163 162 163 164 165 169 171 172 169 161 151 139 143 155 154 156 170 92 76 98 136 158 162 144 151 241 267 288 292 301 318 326 324 321 313 304 301 293
165 166 167 165 160 161 163 168 168 172 176 177 176 176 168 164 164 159 160 155 152 162 159 130 139 154 187 160 158 191 236 287 298 296 308 310 308 305 300 306 303 303 297
166 166 165 161 155 154 151 152 171 168 178 179 178 177 173 172 145 126 165 168 169 163 165 173 177 173 181 186 205 222 246 250 264 283 291 295 295 295 301 309 303 296 293
166 165 162 157 153 152 147 129 74 92 106 115 110 148 140 124 126 134 131 126 129 153 175 181 188 197 217 234 250 252 254 271 287 291 289 291 293 293 297 301 298 293 294
169 164 160 158 157 157 156 153 143 113 102 112 122 130 139 134 135 140 137 134 146 167 185 194 202 211 227 241 255 264 273 284 292 289 288 291 294 293 295 297 296 295 295
167 159 159 160 161 161 160 161 161 158 153 145 141 146 148 144 146 148 151 150 152 175 203 213 218 225 236 247 252 264 274 279 279 285 290 295 299 297 296 297 297 302 300
161 158 160 157 158 159 157 157 158 162 159 154 150 147 152 148 149 160 172 184 178 188 206 217 230 242 250 255 261 264 269 273 279 283 289 293 294 294 297 303 303 305 298
155 147 153 156 157 158 158 158 161 164 164 164 167 160 156 164 168 169 184 199 201 203 213 219 224 237 251 259 260 260 263 266 273 277 283 285 287 288 291 296 301 302 300
154 151 156 159 159 160 161 163 165 167 167 167 170 157 166 181 181 182 188 201 210 212 217 224 225 230 238 242 250 255 262 267 270 277 282 285 287 289 292 294 296 297 300
155 155 161 161 159 162 163 166 165 167 169 170 165 154 167 190 187 190 195 204 212 215 216 225 230 229 231 237 248 261 267 271 274 277 283 287 290 291 293 294 295 298 297
153 153 156 156 155 151 161 164 165 168 171 172 168 164 174 188 189 194 193 194 198 205 206 219 233 232 234 244 252 257 265 279 288 288 287 287 287 287 288 288 291 294 296
151 154 155 154 155 160 164 167 167 168 171 171 169 169 175 182 186 185 179 173 180 192 198 216 234 242 250 261 261 262 276 300 299 287 283 284 284 285 285 286 289 291 292
152 153 156 157 158 160 162 163 163 165 166 167 166 166 167 170 172 170 169 167 171 175 186 208 218 228 239 252 262 276 347 318 299 299 290 283 282 283 286 288 289 293 294
156 156 156 157 159 162 164 164 162 161 161 160 162 164 163 162 164 163 162 162 163 166 178 193 209 232 247 255 299 358 346 289 289 292 288 285 285 285 289 286 289 291 292